Regional Weather Roundup
Issued by NWS

Home | Current Version | Previous Version | Text Only | Print | Product List | Glossary On
Versions: 1 2 3 4 5 6 7 8 9 10 11 12 13 14 15 16 17 18 19 20 21 22 23 24 25 26 27 28 29 30 31 32 33 34 35 36 37 38 39 40 41 42 43 44 45 46 47 48 49
000
ASUS43 KDMX 280307
RWRIA

WEATHER ROUNDUP FOR IOWA
NATIONAL WEATHER SERVICE DES MOINES IA
1000 PM CDT WED MAY 27 2015

NOTE: "FAIR" INDICATES FEW OR NO CLOUDS BELOW 12,000 FEET WITH NO
SIGNIFICANT WEATHER AND/OR OBSTRUCTIONS TO VISIBILITY.

* - THESE STATIONS ARE NOT NWS STATIONS...THUS NOT UNDER NWS
QUALITY CONTROL.  THEY ALSO DO NOT REPORT WEATHER SUCH
AS PRECIPITATION OR FOG.

IAZ001>003-012>014-020>022-031>034-043>046-280400-
   NORTHWEST IOWA

CITY           SKY/WX    TMP DP  RH WIND       PRES   REMARKS
CARROLL *      MOCLDY    66  59  77 CALM      30.05S
CHEROKEE *     PTCLDY    66  54  63 CALM      30.04R
DENISON *      CLEAR     66  61  82 CALM      30.04R
LE MARS *      CLEAR     73  54  49 S7        30.04R
ORANGE CITY *  CLEAR     72  48  43 CALM      30.04R
SHELDON *      CLEAR     68  68 100 S3        30.03R
SIOUX CITY     MOCLDY    71  52  50 S8        30.03R
SPENCER        CLEAR     68  56  65 S6        30.04R
STORM LAKE *   CLEAR     70  54  56 S6        30.06R
$$

IAZ055>058-069>071-079>083-090>094-280400-
   SOUTHWEST IOWA

CITY           SKY/WX    TMP DP  RH WIND       PRES   REMARKS
ATLANTIC *     CLEAR     68  57  68 CALM      30.06R
AUDUBON *      CLEAR     64  57  77 CALM      30.08R
CLARINDA *     CLEAR     64  59  82 CALM      30.08S
COUNCIL BLFS * CLEAR     72  52  49 S6        30.07R
CRESTON *      CLEAR     68  59  73 S9        30.09R
HARLAN  *      CLEAR     66  57  72 CALM      30.09R
LAMONI         PTCLDY    74  56  53 S7        30.09R
RED OAK *      CLEAR     68  55  64 CALM      30.06S
SHENANDOAH *   CLEAR     66  55  68 SE8       30.07R
$$

IAZ047>049-059>061-072>074-084-280400-
   CENTRAL IOWA

CITY           SKY/WX    TMP DP  RH WIND       PRES   REMARKS
AMES           CLEAR     65  59  81 S3        30.06R
ANKENY *       CLEAR     64  61  88 CALM      30.06R
CHARITON *       N/A     68  61  77 S5        30.09R
DES MOINES     PTCLDY    72  59  63 S6        30.06R
GRINNELL*      CLEAR     68  57  68 S5        30.09R
KNOXVILLE *    CLEAR     70  57  64 S5        30.07R
MARSHALLTOWN   CLEAR     71  56  58 S5        30.06R
PELLA *        CLEAR     66  63  88 S3        30.09R
PERRY *          N/A     68  61  77 S5        30.06R
$$

IAZ004>006-015-016-023>025-035-036-280400-
   NORTH CENTRAL IOWA

CITY           SKY/WX    TMP DP  RH WIND       PRES   REMARKS
ALGONA *       CLEAR     70 -36   1 S9        30.05R
CLARION *      CLEAR     68  61  77 S9        30.06R
ESTHERVILLE    PTCLDY    68  56  65 S7        30.04R
FORT DODGE *   CLEAR     68  55  64 CALM      30.07R
MASON CITY     CLEAR     66  57  72 S5        30.07R
FOREST CITY *  CLEAR     63  55  77 S7        30.05R
IOWA FALLS *     N/A     68  59  73 S5        30.08R
$$

IAZ007>011-017>019-026>030-037>042-050>054-066-280400-
   NORTHEAST IOWA

CITY           SKY/WX    TMP DP  RH WIND       PRES   REMARKS
CEDAR RAPIDS   CLEAR     68  61  78 S3        30.08R
CHARLES CITY * CLEAR     70  59  68 S6        30.06R
CLINTON *      CLEAR     66  57  72 S6        30.12R
DECORAH *      PTCLDY    70  59  68 S3        30.06R
DUBUQUE        CLEAR     65  59  81 S5        30.09R
MONTICELLO *   CLEAR     68  61  77 CALM      30.08R
OELWEIN *      CLEAR     66  59  77 S6        30.08R
WATERLOO       CLEAR     66  59  78 S7        30.05R
$$

IAZ064-065-067-068-078-280400-
   EAST CENTRAL IOWA

CITY           SKY/WX    TMP DP  RH WIND       PRES   REMARKS
DAVENPORT      CLEAR     67  58  72 S6        30.10R
IOWA CITY      CLEAR     67  60  78 CALM      30.10R
MT. PLEASANT * PTCLDY    66  59  77 S5        30.11R
MUSCATINE *    CLEAR     68  61  77 CALM      30.10R
QUAD CITIES    CLEAR     64  57  78 CALM      30.09R
$$

IAZ062-063-075>077-085>089-095>099-280400-
   SOUTHEAST IOWA

CITY           SKY/WX    TMP DP  RH WIND       PRES   REMARKS
BURLINGTON     PTCLDY    66  62  87 CALM      30.11R
FAIRFIELD *    CLEAR     68  59  73 S3        30.10R
FORT MADISON * CLEAR     66  59  77 S3        30.12R
KEOKUK *       CLEAR     66  61  82 CALM      30.10R
OSKALOOSA *      N/A     66  59  77 S7        30.09R
CENTERVILLE *  CLEAR     66  66 100 S6        30.11R
OTTUMWA        PTCLDY    66  59  78 S5        30.09R
WASHINGTON *   CLEAR     68  59  73 S6        30.11R
$$

ABBREVIATIONS USED IN REMARKS
   TC - TEMPERATURES IN CELSIUS
  WCI - WIND CHILL INDEX
   HX - HEAT INDEX
  VSB - VISIBILITY
$$




USA.gov is the U.S. government's official web portal to all federal, state and local government web resources and services.